Location: Anuling
(14.1239°N, 120.8922°E)
Time: 11:37:48
(UTC+00:00)

Cosmos 2218 Rocket - Pass Details

Date: 18 April 2026
Orbit: 955 x 1005 km, 82.9° (Epoch: 11 May)

Event Time Altitude Azimuth Distance (km) Brightness Sun altitude
Rises 12:30:50 0° 208° (SSW) 3,640 7.1 -33.4°
Reaches altitude 10° 12:33:42 10° 219° (SW) 2,688 6.4 -34.0°
Maximum altitude 12:38:49 28° 276° (W) 1,719 5.7 -35.1°
Drops below altitude 10° 12:43:56 10° 334° (NNW) 2,678 6.8 -36.2°
Sets 12:46:49 0° 345° (NNW) 3,624 7.5 -36.9°
